Miscellaneous Local Product
Issued by NWS Hastings, NE

Home | Current Version | Previous Version | Graphics & Text | Print | Product List | Glossary On
Versions: 1 2 3 4 5 6 7 8 9 10 11 12 13 14 15 16 17 18 19 20 21 22 23 24 25 26 27 28 29 30 31 32 33 34 35 36 37 38 39 40 41 42 43 44 45 46 47 48 49 50
606
AXUS43 KGID 250602
MISGRI

GID CWA HOURLY WEATHER ROUNDUP
NATIONAL WEATHER SERVICE HASTINGS NE
100 AM CDT WED MAY 25 2016

NOTE: "FAIR" INDICATES FEW OR NO CLOUDS BELOW 12,000 FEET WITH NO
SIGNIFICANT WEATHER AND/OR OBSTRUCTIONS TO VISIBILITY.

...SOUTH CENTRAL NEBRASKA...

CITY           SKY/WX    TMP DP  RH WIND       PRES   REMARKS
GRAND ISLAND   CLOUDY    70  63  78 SE9       29.77F
HASTINGS       CLOUDY    69  62  78 SE3       29.77F
KEARNEY        CLOUDY    68  61  77 W7        29.83R
ORD            CLOUDY    66  61  84 SW8       29.82R
YORK           LGT RAIN  70  64  83 SE29G36   29.78F
AURORA         CLOUDY    72  64  77 SE14      29.77F
LEXINGTON      RAIN      60  55  83 N15       29.86F
HOLDREGE       CLOUDY    66  62  85 SE3       29.77S
HEBRON         TSTM      67  55  67 S13       29.89R

...NEBRASKA PANHANDLE...

CITY           SKY/WX    TMP DP  RH WIND       PRES   REMARKS
CHADRON        CLOUDY    53  50  90 E9        29.82R
ALLIANCE       CLOUDY    51  49  92 NE13      29.83S
SCOTTSBLUFF    PTCLDY    52  47  83 E6        29.86R
SIDNEY         CLOUDY    54  49  83 E14       29.85R

...WESTERN AND NORTH CENTRAL NEBRASKA...

CITY           SKY/WX    TMP DP  RH WIND       PRES   REMARKS
VALENTINE      CLOUDY    57  50  78 N16G29    29.80F
AINSWORTH      RAIN      57  55  94 NW13      29.86F
ONEILL         CLOUDY    69  57  65 SE8       29.80F
BROKEN BOW     TSTM      58  54  86 NW18G25   29.91R FOG
IMPERIAL       TSTM      56  52  86 N10G31    29.81S FOG
NORTH PLATTE   CLOUDY    58  53  84 N10       29.80F
MCCOOK         CLOUDY    62  54  74 E8        29.81F

...EASTERN NEBRASKA...

CITY           SKY/WX    TMP DP  RH WIND       PRES   REMARKS
NORFOLK        CLOUDY    70  59  68 SE16G22   29.80F
SO SIOUX CITY  CLOUDY    68  61  78 SE9       29.84R
TEKAMAH        CLOUDY    69  62  78 SE15      29.83F
COLUMBUS       CLOUDY    72  57  60 SE14G20   29.81F
ALBION         CLOUDY    70  58  65 SE13G21   29.80S
OMAHA EPPLEY   CLOUDY    73  64  73 SE10      29.85F
MILLARD        CLOUDY    73  64  75 SE10G16   29.85F
LINCOLN        LGT RAIN  67  60  78 S20G33    29.88R
NEBRASKA CITY  CLOUDY    71  66  84 SE10      29.87F
BEATRICE       RAIN      61  59  94 S18       29.93R
FALLS CITY     CLOUDY    72  66  81 SE6       29.86F

...NORTHERN KANSAS...

CITY           SKY/WX    TMP DP  RH WIND       PRES   REMARKS
GOODLAND       CLEAR     59  55  87 SE12      29.78R
HILL CITY      CLOUDY    63  55  75 SE13      29.80R
NORTON         CLEAR     63  48  59 SE10G17   29.78R
PHILLIPSBURG   PTCLDY    64  54  68 E8        29.78F
SMITH CENTER   CLEAR     61  54  77 SE9       29.77F
HAYS           CLOUDY    55  52  88 SE15      29.81F
RUSSELL        CLOUDY    61  56  83 S12       29.81R
CONCORDIA      LGT RAIN  60  58  92 E13       29.85F
SALINA         CLOUDY    64  59  83 NE12      29.79F
TOPEKA         CLOUDY    72  61  68 W22G30    29.92R



USA.gov is the U.S. government's official web portal to all federal, state and local government web resources and services.